www.pogodaiklimat.ru

Погода и климат >> Архив погоды >> Беларусь >> Пружаны


ПОГОДА в Пружанах

  • Прогноз погоды в Пружанах
  • Монитор погоды в Пружанах
  • Климат города

АРХИВ ПОГОДЫ в Пружанах

Время (UTC), дата Ветер
(напр.,м/с)
 
Видим.   Явления Облачность Т
(С)
Тd
(С)
f
(%)
Тe
(С)
Тes
(С)
Комфортность P
(гПа)
Po
(гПа)
Тmin
(С)
Tmax
(С)
R
(мм)
R24
(мм)
S
(см)
06 13.02 штиль 0 6000 м слабый снег 10/10 90 м
[Frnb Ns]
-1.6 -2.1 96 -3 -3 1017.5 996.9 -1.6 0.0 7
09 13.02 СЗ 1 3000 м слабый снег 10/10 180 м
[Frnb Ns]
-0.7 -1.4 95 -3 -3 1018.2 997.6
12 13.02 СВ 1 8000 м слабый снег 10/10 360 м
[Frnb Ns]
+0.4 -1.6 86 -2 -2 1018.2 997.6
15 13.02 В 2 6000 м слабый снег 10/10 400 м
[Frnb Ns]
-0.4 -1.0 96 -4 -4 1017.7 997.2
18 13.02 штиль 0 1300 м дымка {снег} 10/10 180 м
[St]
-1.0 -1.3 98 -2 -2 1018.7 998.1 +1.0 1 6
06 14.02 В 2 10 км в посл. час снег 10/10 540 м
[Sc]
-3.6 -5.0 90 -8 -8 1020.0 999.1 -3.6 0.7 8
09 14.02 В 3 9000 м слабый снег 10/10 300 м
[Frnb Ns]
-3.4 -5.1 88 -9 -9 1021.2 1000.3
12 14.02 В 4 20 км {снег} 10/10 420 м
[St]
-2.4 -5.3 80 -8 -8 1021.7 1000.9
15 14.02 ЮВ 3 20 км 10/10 400 м
[St]
-3.4 -6.2 81 -9 -9 1023.0 1002.1
18 14.02 В 5 15 км 10/10 330 м
[St]
-4.4 -6.7 84 -11 -11 1024.2 1003.2 -2.2 0.2 8
06 15.02 В 2 20 км 10/10 600 м
[Sc]
-7.4 -9.1 88 -12 -12 1027.2 1005.9 -7.4 0.2 8
09 15.02 ЮВ 3 9000 м слабый снег 10/10 420 м
[Frnb Ns]
-5.6 -8.2 82 -11 -11 1028.1 1006.9
12 15.02 ЮВ 3 20 км {снег} 10/10 480 м
[St]
-4.8 -8.0 78 -10 -10 1027.7 1006.7
15 15.02 ЮВ 3 20 км 10/10 400 м
[St]
-5.1 -8.3 78 -10 -10 1027.6 1006.6
18 15.02 штиль 0 9000 м слабый снег 10/10 480 м
[Frnb Ns]
-5.2 -7.3 85 -6 -6 1027.8 1006.8 -4.7 0.0 8
06 16.02 Ю 3 15 км 10/10 240 м
[St]
-3.7 -5.5 87 -9 -9 1023.8 1002.8 -5.4 0.0 8
09 16.02 Ю 3 15 км 10/0
[Ac und]
-2.6 -4.5 87 -8 -7 1023.2 1002.4
12 16.02 Ю 5 15 км 9/0
[Ac trans]
-0.6 -3.7 80 -7 -6 1022.0 1001.4
15 16.02 Ю 3 9000 м слабый снег 10/10 360 м
[Frnb Ns]
-0.1 -3.4 78 -5 -5 1021.4 1000.8
18 16.02 З 3 6000 м слабый снег 10/10 240 м
[Frnb Ns]
-0.2 -0.8 96 -5 -5 1022.0 1001.4 +0.3 0.1 6
06 17.02 ЮЗ 3 10 км 9/0
[Ac trans]
-4.4 -5.7 91 -10 -10 1022.3 1001.4 -4.8 0.3 6
09 17.02 ЮЗ 4 9000 м слабый снег 10/10 300 м
[Frnb Ns]
-0.2 -1.7 90 -6 -6 1021.2 1000.6
12 17.02 З 4 15 км в посл. час снег 10/10 330 м
[St]
+1.2 -0.8 87 -4 -4 1021.0 1000.6
15 17.02 З 3 9000 м слабый снег 10/10 360 м
[Frnb Ns]
+0.8 -0.6 90 -4 -4 1020.5 1000.1
18 17.02 З 3 10 км {снег} 10/10 480 м
[St]
+0.4 -0.7 92 -4 -4 1020.7 1000.2 +1.6 0.3 5
06 18.02 СЗ 4 15 км 10/0
[Ac und]
-2.4 -4.6 85 -8 -8 1022.7 1001.9 -2.5 0.7 8
09 18.02 СЗ 4 20 км 10/0
[Ac und]
-2.2 -6.1 75 -8 -7 1023.7 1002.8
12 18.02 СЗ 5 20 км {снег} 10/10 800 м
[Sc]
-1.6 -6.5 69 -8 -8 1024.5 1003.6
15 18.02 С 5 20 км 10/3 600 м
[Sc Ac und]
-2.4 -7.6 67 -9 -9 1025.4 1004.5
18 18.02 СЗ 3 9000 м слабый снег 10/10 450 м
[Frnb Ns]
-3.2 -6.7 77 -8 -8 1026.5 1005.6 -1.1 0.0
06 19.02 ЮЗ 2 10 км 3 балла -9.4 -10.6 91 -14 -14 1026.0 1004.0 -11.1 7
09 19.02 З 2 10 км 10 баллов -2.6 -5.9 78 -6 -6 1026.0 1004.6
12 19.02 З 3 10 км 6 баллов +1.3 -2.3 77 -3 -2 1025.0 1003.9
15 19.02 З 2 10 км 3 балла +0.6 -3.1 76 -3 -3 1025.0 1003.8
18 19.02 штиль 0 10 км 10 баллов -3.2 -4.6 90 -4 -4 1025.0 1003.5 +2.3 6

 

Местоположение метеостанции Пружаны (Брестская область, Беларусь): широта 52.55 долгота 24.49 высота над уровнем моря 167 м.

В архиве по умолчанию представлена погода в Пружанах за последнюю неделю. Архивные данные за месяц целиком и за предыдущие месяцы, начиная с января 2011 года, Вы можете получить, выбрав интересующий диапазон дат из раскрывающегося списка и нажав кнопку "Ввод!".

Внимание! Время в таблицах - всемирное. Для получения местного времени необходимо прибавить поправку, которая в Пружанах равна 3 ч.

Смотрите также архив погоды в соседних городах и на ближайших метеорологических станциях:

Погода в Ивацевичах (Брестская область, Беларусь) (61 км)
Погода в Волковыске (Гродненская область, Беларусь) (69 км)
Погода в Бресте (Брестская область, Беларусь) (72 км)
Погода в Высоком (Брестская область, Беларусь) (77 км)
Погода в Terespol (Польша) (80 км)
Погода в Bialystok (Польша) (108 км)
Погода в Любешове (Волынская область, Украина) (111 км)
Погода в Пинске (Брестская область, Беларусь) (117 км)
Погода в Барановичах (Брестская область, Беларусь) (119 км)
Погода в Гродно (Гродненская область, Беларусь) (121 км)

Пояснения к столбцам:

Ветер - указаны скорость ветра в м/с - средняя за 10 мин, порывы в срок и между сроками (в фигурных скобках) и направление, откуда дует ветер: С - северный, СВ - северо-восточный, В - восточный, ЮВ - юго-восточный, Ю - южный, ЮЗ - юго-западный, З - западный, СЗ - северо-западный.
Видимость - горизонтальная дальность видимости в метрах или километрах. При видимости от 1 до 10 км при отсутствии осадков обычно наблюдается дымка, при ухудшении видимости до 1 км и менее - туман. В сухую погоду видимость может ухудшаться дымом, пылью или мглою.
Явления - указаны атмосферные явления, наблюдавшиеся в срок или в последний час перед сроком; фигурными скобками обозначены явления, наблюдавшиеся между сроками (за 1-3 часа до срока); квадратными скобками обозначены град или гололедные отложения с указанием их диаметра в мм.
Облачность - указаны через наклонную черту общая и нижняя облачность в баллах и высота нижней границы облаков в метрах; квадратными скобками обозначены формы облаков: Ci - перистые, Cs - перисто-слоистые, Cc - перисто-кучевые, Ac - высококучевые, As - высокослоистые, Sc - слоисто-кучевые, Ns - слоисто-дождевые, Cu - кучевые, Cb - кучево-дождевые. Подробнее классификацию облаков см. в Атласе облаков (PDF).
T - Температура воздуха - температура, измеренная на высоте 2 м над землей.
Td - Температура точки росы - температура, при понижении до которой содержащийся в воздухе водяной пар достигнет насыщения.
f - Относительная влажность воздуха - влажноcть воздуха, измеренная на высоте 2 м над землей.
Te - Эффективная температура - температура, которую ощущает одетый по сезону человек в тени. Характеристика душности погоды. При расчете учитывается влияние влажности воздуха и скорости ветра на теплоощущения человека.
Tes - Эффективная температура на солнце - температура, которую ощущает человек, с поправкой на солнечный нагрев. Характеристика знойности погоды. Зависит от высоты солнца над горизонтом, облачности и скорости ветра. Ночью, в пасмурную погоду, а также при ветре 12 м/с и более поправка равна нулю.
P - Атмосферное давление - приведенное к уровню моря атмосферное давление.
Po - Атмосферное давление - измеренное на уровне метеостанции атмосферное давление.
Tmin - Минимальная температура - минимум температуры воздуха на высоте 2 м над землей.
Tmax - Максимальная температура - максимум температуры воздуха на высоте 2 м над землей.
R - Количество осадков - Количество выпавших осадков за период времени, мм. При наведении курсора мыши на число - период времени, за который выпало указанное количество осадков.
R24 - Количество осадков - Количество выпавших осадков за 24 часа, мм.
S - Снежный покров - Высота снежного покрова, см. При наведении курсора мыши на число - состояние снежного покрова и степень покрытия местности в баллах.